Buffalo, MN

3:33 AM CST on December 07, 2019 (GMT -0600)
Buffalo

Weather History for KCFE - October, 2019

Change the Weather History Date:

Monday, October 14, 2019

  Actual Average (WUND) Record (WUND)
Temperature  
Mean Temperature 41 °F -  
Max Temperature 48 °F - - (-1)
Min Temperature 34 °F - - (-1)
Degree Days  
Heating Degree Days 24    
Moisture  
Dew Point 33 °F    
Average Humidity 75    
Maximum Humidity 90    
Minimum Humidity 53    
Precipitation  
Precipitation 0.00 in - - ()
Sea Level Pressure  
Sea Level Pressure 29.96 in    
Wind  
Wind Speed - (North)    
Max Wind Speed -    
Max Gust Speed -    
Visibility 10 miles    
Events      
Averages and records for this station are not official NWS values.
T = Trace of Precipitation, MM = Missing Value Source: NWS Daily Summary

Daily Weather History Graph

Daily Weather History Graph

Search for Another Location

Airport or City:

Astronomy

Oct. 14, 2019 Rise Set
Actual Time 7:29 AM CDT 6:32 PM CDT
Civil Twilight 7:00 AM CDT 7:01 PM CDT
Nautical Twilight 6:25 AM CDT 7:35 PM CDT
Astronomical Twilight 5:51 AM CDT 8:10 PM CDT
Moon 7:22 PM CDT (10/14) 8:01 AM CDT (10/14)
Length of Visible Light 12h 01m
Length of Day
11h 02m
Full, 99% of the Moon is Illuminated
Oct 14
Full
Oct 21
Last Quarter
Oct 27
New
Nov 4
First Quarter
Nov 12
Full

Hourly Weather History & Observations

Time (CDT) Temp. Dew Point Humidity Pressure Visibility Wind Dir Wind Speed Gust Speed Precip Events Conditions
12:15 AM 35.2 °F 32.0 °F 88% 29.96 in 10.0 mi North - - N/A   Clear
12:35 AM 35.2 °F 32.0 °F 88% 29.96 in 10.0 mi North - - N/A   Clear
12:55 AM 35.1 °F 32.0 °F 89% 29.95 in 10.0 mi North - - N/A   Clear
12:56 AM 35.1 °F 32.0 °F 89% 29.95 in 10.0 mi North - - N/A   Clear
1:15 AM 35.2 °F 32.0 °F 88% 29.96 in 10.0 mi North - - N/A   Clear
1:35 AM 35.6 °F 32.2 °F 87% 29.96 in 10.0 mi North - - N/A   Clear
1:55 AM 34.9 °F 32.0 °F 89% 29.96 in 10.0 mi North - - N/A   Clear
1:56 AM 34.9 °F 32.0 °F 89% 29.96 in 10.0 mi North - - N/A   Clear
2:15 AM 34.7 °F 32.0 °F 90% 29.96 in 10.0 mi North - - N/A   Mostly Cloudy
2:16 AM 34.9 °F 32.0 °F 89% 29.96 in 10.0 mi North - - N/A   Mostly Cloudy
2:35 AM 35.6 °F 32.5 °F 89% 29.96 in 10.0 mi North - - N/A   Overcast
2:55 AM 35.8 °F 32.5 °F 88% 29.96 in 10.0 mi North - - N/A   Overcast
3:15 AM 36.0 °F 32.5 °F 87% 29.96 in 10.0 mi North - - N/A   Overcast
3:16 AM 36.0 °F 32.5 °F 87% 29.96 in 10.0 mi North - - N/A   Overcast
3:35 AM 36.0 °F 32.5 °F 87% 29.96 in 10.0 mi North - - N/A   Overcast
3:55 AM 35.8 °F 32.7 °F 89% 29.97 in 10.0 mi North - - N/A   Overcast
4:15 AM 36.0 °F 32.9 °F 89% 29.98 in 10.0 mi North - - N/A   Overcast
4:35 AM 36.0 °F 32.7 °F 88% 29.98 in 10.0 mi North - - N/A   Overcast
4:55 AM 36.0 °F 32.4 °F 87% 29.99 in 10.0 mi North - - N/A   Overcast
5:15 AM 36.1 °F 32.4 °F 86% 29.99 in 10.0 mi North - - N/A   Overcast
5:35 AM 36.0 °F 32.5 °F 87% 29.99 in 10.0 mi North - - N/A   Overcast
5:55 AM 36.0 °F 32.4 °F 87% 30.00 in 10.0 mi North - - N/A   Overcast
5:56 AM 36.0 °F 32.4 °F 87% 30.00 in 10.0 mi North - - N/A   Overcast
6:15 AM 35.6 °F 32.2 °F 87% 29.99 in 10.0 mi North - - N/A   Overcast
6:35 AM 35.6 °F 32.5 °F 89% 30.00 in 10.0 mi North - - N/A   Overcast
6:55 AM 35.6 °F 32.5 °F 89% 30.00 in 10.0 mi North - - N/A   Overcast
7:15 AM 35.2 °F 32.0 °F 88% 30.01 in 10.0 mi North - - N/A   Overcast
7:35 AM 34.9 °F 32.0 °F 89% 30.01 in 10.0 mi North - - N/A   Overcast
7:55 AM 35.1 °F 32.0 °F 89% 30.01 in 10.0 mi North - - N/A   Overcast
8:15 AM 35.6 °F 32.2 °F 87% 30.01 in 10.0 mi North - - N/A   Overcast
8:35 AM 34.7 °F 32.0 °F 90% 30.01 in 10.0 mi North - - N/A   Overcast
8:55 AM 35.8 °F 32.0 °F 86% 30.02 in 10.0 mi North - - N/A   Scattered Clouds
9:15 AM 37.0 °F 32.5 °F 84% 30.02 in 10.0 mi North - - N/A   Clear
9:35 AM 38.1 °F 32.2 °F 79% 30.02 in 10.0 mi North - - N/A   Clear
9:55 AM 39.2 °F 31.8 °F 75% 30.02 in 10.0 mi North - - N/A   Clear
10:15 AM 39.9 °F 31.8 °F 73% 30.02 in 10.0 mi North - - N/A   Clear
10:35 AM 41.0 °F 32.0 °F 70% 30.02 in 10.0 mi North - - N/A   Clear
10:36 AM 41.0 °F 32.0 °F 70% 30.02 in 10.0 mi North - - N/A   Clear
10:55 AM 41.4 °F 31.8 °F 69% 30.01 in 10.0 mi North - - N/A   Clear
11:15 AM 42.1 °F 31.8 °F 67% 30.01 in 10.0 mi North - - N/A   Clear
11:35 AM 43.2 °F 31.8 °F 64% 30.01 in 10.0 mi North - - N/A   Clear
12:15 PM 42.4 °F 31.5 °F 65% 30.01 in 10.0 mi North - - N/A   Clear
12:16 PM 42.4 °F 31.6 °F 66% 30.01 in 10.0 mi North - - N/A   Clear
12:35 PM 43.7 °F 31.6 °F 63% 30.01 in 10.0 mi North - - N/A   Clear
12:55 PM 45.3 °F 32.2 °F 60% 30.00 in 10.0 mi North - - N/A   Scattered Clouds
12:56 PM 45.7 °F 32.4 °F 60% 30.00 in 10.0 mi North - - N/A   Scattered Clouds
1:15 PM 45.5 °F 31.6 °F 58% 29.99 in 10.0 mi North - - N/A   Scattered Clouds
1:35 PM 46.4 °F 32.4 °F 58% 29.99 in 10.0 mi North - - N/A   Scattered Clouds
1:55 PM 46.6 °F 31.1 °F 55% 29.98 in 10.0 mi North - - N/A   Clear
2:15 PM 46.8 °F 31.8 °F 56% 29.97 in 10.0 mi North - - N/A   Clear
2:35 PM 47.7 °F 32.0 °F 55% 29.96 in 10.0 mi North - - N/A   Clear
2:55 PM 47.8 °F 32.0 °F 54% 29.96 in 10.0 mi North - - N/A   Clear
3:35 PM 48.2 °F 31.8 °F 53% 29.95 in 10.0 mi North - - N/A   Clear
3:55 PM 48.2 °F 31.6 °F 53% 29.94 in 10.0 mi North - - N/A   Clear
3:56 PM 48.0 °F 31.6 °F 53% 29.94 in 10.0 mi North - - N/A   Clear
4:15 PM 47.7 °F 32.0 °F 55% 29.94 in 10.0 mi North - - N/A   Clear
4:35 PM 47.8 °F 32.0 °F 54% 29.93 in 10.0 mi North - - N/A   Clear
4:36 PM 47.8 °F 32.0 °F 54% 29.93 in 10.0 mi North - - N/A   Clear
4:55 PM 47.8 °F 32.0 °F 54% 29.92 in 10.0 mi North - - N/A   Clear
5:15 PM 47.3 °F 32.4 °F 56% 29.91 in 10.0 mi North - - N/A   Clear
5:16 PM 47.3 °F 32.4 °F 56% 29.91 in 10.0 mi North - - N/A   Clear
5:35 PM 46.9 °F 32.9 °F 58% 29.91 in 10.0 mi North - - N/A   Clear
5:55 PM 46.4 °F 32.9 °F 59% 29.91 in 10.0 mi North - - N/A   Clear
6:15 PM 45.5 °F 32.9 °F 61% 29.91 in 10.0 mi North - - N/A   Clear
6:35 PM 44.6 °F 33.3 °F 64% 29.91 in 10.0 mi North - - N/A   Clear
6:55 PM 42.6 °F 34.0 °F 71% 29.90 in 10.0 mi North - - N/A   Clear
6:56 PM 42.4 °F 34.0 °F 72% 29.90 in 10.0 mi North - - N/A   Clear
7:15 PM 41.4 °F 33.8 °F 74% 29.90 in 10.0 mi North - - N/A   Clear
7:16 PM 41.4 °F 33.8 °F 74% 29.90 in 10.0 mi North - - N/A   Clear
7:35 PM 40.6 °F 33.8 °F 77% 29.91 in 10.0 mi North - - N/A   Clear
7:55 PM 38.8 °F 33.8 °F 82% 29.92 in 10.0 mi North - - N/A   Clear
8:15 PM 39.4 °F 33.4 °F 79% 29.93 in 10.0 mi North - - N/A   Clear
8:35 PM 38.7 °F 33.8 °F 83% 29.92 in 10.0 mi North - - N/A   Clear
8:55 PM 37.9 °F 34.2 °F 86% 29.92 in 10.0 mi North - - N/A   Scattered Clouds
8:56 PM 38.1 °F 34.3 °F 86% 29.92 in 10.0 mi North - - N/A   Scattered Clouds
9:15 PM 39.9 °F 35.6 °F 85% 29.92 in 10.0 mi North - - N/A   Overcast
9:35 PM 41.0 °F 35.6 °F 81% 29.92 in 10.0 mi North - - N/A   Overcast
9:55 PM 41.9 °F 35.8 °F 79% 29.92 in 10.0 mi North - - N/A   Overcast
10:35 PM 43.2 °F 34.7 °F 72% 29.91 in 10.0 mi North - - N/A   Overcast
10:55 PM 43.2 °F 34.9 °F 73% 29.90 in 10.0 mi North - - N/A   Overcast
11:15 PM 42.8 °F 34.7 °F 73% 29.90 in 10.0 mi North - - N/A   Mostly Cloudy
11:35 PM 41.9 °F 34.2 °F 74% 29.89 in 10.0 mi North - - N/A   Scattered Clouds
11:36 PM 41.7 °F 34.2 °F 75% 29.89 in 10.0 mi North - - N/A   Scattered Clouds
11:55 PM 41.5 °F 34.7 °F 77% 29.89 in 10.0 mi North - - N/A   Mostly Cloudy